Preview of NWS' New Version of Forecast
This preview is not operational and should not be used for support decisions.

Regional Weather Roundup (RWR)

Issued by National Weather Service (NWS)

                            
000
ASUS46 KPQR 240810
RWROR 

OREGON REGIONAL WEATHER ROUNDUP
NATIONAL WEATHER SERVICE PORTLAND OR
100 AM PDT MON JUN 24 2019

NOTE: "FAIR" INDICATES FEW OR NO CLOUDS BELOW 12,000 FEET WITH
NO SIGNIFICANT WEATHER AND/OR OBSTRUCTIONS TO VISIBILITY.

ORZ001>013-240900-
NORTHWEST OREGON

  
CITY           SKY/WX    TMP DP  RH WIND       PRES   REMARKS
ASTORIA        CLOUDY    53  50  89 CALM      30.15S                  
TILLAMOOK      CLOUDY    50  46  87 CALM      30.17S                  
NEWPORT        CLEAR     52  46  82 CALM      30.16F                  
PORTLAND       PTCLDY    55  46  71 NW8       30.13F                  
VANCOUVER WA   CLEAR     54  46  74 NW3       30.13S                  
SCAPPOOSE      CLEAR     55  45  68 NW6       30.12F                  
HILLSBORO      PTCLDY    50  44  80 CALM      30.13F                  
AURORA         MOCLDY    55  45  68 N5        30.14F                  
MCMINNVILLE    CLOUDY    54  45  71 NE5       30.13S                  
SALEM          CLOUDY    56  44  64 N10       30.12S                  
CORVALLIS      CLEAR     54  48  80 NW7       30.12S                  
EUGENE         CLEAR     53  47  79 N5        30.11S                  
$$

ORZ021-028-240900-
SOUTHWEST OREGON

  
CITY           SKY/WX    TMP DP  RH WIND       PRES   REMARKS
NORTH BEND     PTCLDY    53  51  93 N8        30.15F                  
BROOKINGS      CLEAR     52  47  83 CALM      30.04S                  
ROSEBURG       CLEAR     61  47  59 NE5       30.08S                  
SEXTON SUMMIT  CLEAR     52  43  71 N8        30.11S                  
GRANTS PASS    FAIR      63  46  55 NW3       30.08S                  
MEDFORD        CLEAR     62  43  49 CALM      30.04S                  
$$

ORZ014>016-041-240900-
COLUMBIA GORGE

  
CITY           SKY/WX    TMP DP  RH WIND       PRES   REMARKS
TROUTDALE      MOCLDY    55  46  71 VRB3      30.13S                  
HOOD RIVER     CLEAR     55  45  67 W9G18     30.06F                  
THE DALLES     CLEAR     59  45  59 NW7       30.03S                  
$$

ORZ029>031-041-044-049-050-061>064-502-503-505>511-240900-
EASTERN OREGON

  
CITY           SKY/WX    TMP DP  RH WIND       PRES   REMARKS
MADRAS         CLEAR     46  41  81 E3        30.09S                  
REDMOND        CLEAR     47  38  71 CALM      30.07F                  
BEND           CLEAR     48  39  71 CALM      30.08S                  
PRINEVILLE     CLEAR     45  37  76 CALM      30.07F                  
KLAMATH FALLS  CLEAR     46  40  79 CALM      30.10S                  
LAKEVIEW       CLEAR     47  35  63 N9        30.10F                  
HERMISTON      CLEAR     60  43  53 SW14      29.99S                  
PENDLETON      CLEAR     57  40  52 W12       30.00F                  
JOHN DAY       CLEAR     51  37  57 CALM      30.06S                  
MEACHAM        CLEAR     44  38  79 CALM      30.05S                  
LA GRANDE      CLEAR     52  40  63 NW9       30.03F                  
BAKER CITY     CLEAR     45  38  76 S5        30.03S                  
BURNS          CLEAR     45  33  63 CALM      30.07R                  
ROME             N/A     56  31  38 N6        30.03S                  
ONTARIO        PTCLDY    59  40  49 CALM      29.99R                  
$$